Location: State Line Observation Field
(36.5320°N, 77.5360°W)
Time: 15:47:31
(UTC-04:00)

Envisat - Pass Details

Date: 12 March 2021
Orbit: 764 x 766 km, 98.1° (Epoch: 16 April)

Event Time Altitude Azimuth Distance (km) Brightness Sun altitude
Rises 04:28:16 0° 35° (NE) 3,235 7.0 -24.1°
Reaches altitude 10° 04:31:49 10° 61° (ENE) 2,303 6.5 -23.4°
Maximum altitude 04:34:20 14° 91° (E) 2,051 6.2 -22.9°
Drops below altitude 10° 04:36:50 10° 121° (ESE) 2,295 6.0 -22.4°
Sets 04:40:20 0° 147° (SSE) 3,214 6.5 -21.7°
